FW0624 Weather Reports


time (UTC)temp
C
wind
direction
speed
KPH
gust
KPH
rain 1hr
cm
rain 24hr
cm
rain mn
cm
humidity
%
barometer
mb
20260506145535 12 353 0.0 4.8 0.00 0.00 0.00
20260506144535 12 7 1.6 11.3 0.00 0.00 0.00
20260506143555 12 5 4.8 16.1 0.00 0.00 0.00
20260506142535 11 354 3.2 12.9 0.00 0.00 0.00
20260506141515 11 6 8.0 16.1 0.00 0.00 0.00
20260506140515 11 6 6.4 16.1 0.00 0.00 0.00
20260506135515 11 8 4.8 12.9 0.00 0.00 0.00
20260506134615 11 2 8.0 22.5 0.00 0.00 0.00
20260506133515 11 8 6.4 14.5 0.00 0.00 0.00
20260506132635 12 3 4.8 14.5 0.00 0.00 0.00
20260506131556 11 8 6.4 14.5 0.00 0.00 0.00
20260506130535 11 8 6.4 12.9 0.00 0.00 0.00
20260506125535 11 7 4.8 16.1 0.00 0.00 0.00
20260506124515 11 358 3.2 9.7 0.00 0.00 0.00
20260506122535 11 6 3.2 9.7 0.00 0.00 0.00
20260506121535 10 9 4.8 11.3 0.00 0.00 0.00
20260506120515 10 2 4.8 17.7 0.00 0.00 0.00
20260506115555 10 7 8.0 16.1 0.00 0.00 0.00
20260506114555 10 6 6.4 16.1 0.00 0.00 0.00
20260506113535 11 4 11.3 22.5 0.00 0.00 0.00
20260506112515 12 3 6.4 17.7 0.00 0.00 0.00
20260506111515 12 1 4.8 12.9 0.00 0.00 0.00
20260506110515 13 0 4.8 16.1 0.00 0.00 0.00
20260506105515 13 359 4.8 17.7 0.00 0.00 0.00
20260506104515 12 355 3.2 11.3 0.00 0.00 0.00
20260506103515 13 360 4.8 17.7 0.00 0.00 0.00
20260506102515 13 9 4.8 12.9 0.00 0.00 0.00
20260506101535 13 3 6.4 19.3 0.00 0.00 0.00
20260506100521 12 319 1.6 4.8 0.00 0.00 0.00
20260506095535 12 4 6.4 16.1 0.00 0.00 0.00
20260506094515 12 3 8.0 20.9 0.00 0.00 0.00
20260506093515 12 339 3.2 9.7 0.00 0.00 0.00
20260506092535 12 357 4.8 16.1 0.00 0.00 0.00
20260506091515 11 3 6.4 17.7 0.00 0.00 0.00
20260506090615 11 355 4.8 14.5 0.00 0.00 0.00
20260506085515 11 360 4.8 17.7 0.00 0.00 0.00
20260506084535 11 355 4.8 16.1 0.00 0.00 0.00
20260506083555 11 1 4.8 14.5 0.00 0.00 0.00
20260506082535 10 349 3.2 9.7 0.00 0.00 0.00
20260506081515 10 353 6.4 14.5 0.00 0.00 0.00
20260506080515 10 340 3.2 11.3 0.00 0.00 0.00
20260506072535 8 354 3.2 17.7 0.00 0.00 0.00
20260506071515 8 343 1.6 9.7 0.00 0.00 0.00
20260506062515 6 330 1.6 6.4 0.00 0.00 0.00
20260506061615 6 336 1.6 8.0 0.00 0.00 0.00
20260506060555 6 50 0.0 4.8 0.00 0.00 0.00
20260506050515 6 315 1.6 6.4 0.00 0.00 0.00
20260506044515 6 4 0.0 1.6 0.00 0.00 0.00
20260506043535 6 299 0.0 4.8 0.00 0.00 0.00
20260506042535 6 326 0.0 6.4 0.00 0.00 0.00
20260506041635 6 0.0 0.0 0.00 0.00 0.00
20260506040555 6 304 0.0 6.4 0.00 0.00 0.00
20260506035515 6 0.0 0.0 0.00 0.00 0.00
20260506034536 6 311 0.0 4.8 0.00 0.00 0.00
20260506033535 6 300 1.6 11.3 0.00 0.00 0.00
20260506032515 6 0.0 0.0 0.00 0.00 0.00
20260506031635 6 322 0.0 3.2 0.00 0.00 0.00
20260506030555 7 1 1.6 9.7 0.00 0.00 0.00
20260506025515 7 0.0 0.0 0.00 0.00 0.00
20260506024615 7 325 0.0 4.8 0.00 0.00 0.00
20260506023515 7 305 1.6 6.4 0.00 0.00 0.00
20260506022555 7 311 3.2 9.7 0.00 0.00 0.00
20260506021515 8 315 1.6 6.4 0.00 0.00 0.00
20260506020535 8 312 0.0 3.2 0.00 0.00 0.00
20260506015515 8 338 1.6 14.5 0.00 0.00 0.00
20260506014515 8 301 0.0 3.2 0.00 0.00 0.00
20260506013535 8 0.0 0.0 0.00 0.00 0.00
20260506012515 8 306 0.0 3.2 0.00 0.00 0.00
20260506011535 8 0.0 0.0 0.00 0.00 0.00
20260506010515 8 0.0 0.0 0.00 0.00 0.00
20260506005615 8 0.0 0.0 0.00 0.00 0.00
20260506004535 8 0.0 0.0 0.00 0.00 0.00
20260506003615 8 360 1.6 8.0 0.00 0.00 0.00
20260506002515 8 0.0 0.0 0.00 0.00 0.00
20260506001555 8 358 1.6 6.4 0.00 0.00 0.00
20260506000517 8 352 0.0 3.2 0.00 0.00 0.00
20260505235535 8 0.0 0.0 0.00 0.00 0.00
20260505234615 8 0.0 0.0 0.00 0.00 0.00
20260505233535 8 354 1.6 8.0 0.00 0.00 0.00
20260505232535 8 344 0.0 4.8 0.00 0.00 0.00
20260505231555 8 356 1.6 8.0 0.00 0.00 0.00
20260505230515 8 2 1.6 6.4 0.00 0.00 0.00
20260505225535 8 0.0 0.0 0.00 0.00 0.00
20260505224555 8 0.0 0.0 0.00 0.00 0.00
20260505223515 8 358 1.6 8.0 0.00 0.00 0.00
20260505221555 8 2 1.6 11.3 0.00 0.00 0.00
20260505220518 9 354 3.2 9.7 0.00 0.00 0.00
20260505215535 9 360 1.6 8.0 0.00 0.00 0.00
20260505214515 9 3 1.6 16.1 0.00 0.00 0.00
20260505213515 9 6 3.2 8.0 0.00 0.00 0.00
20260505212535 9 1 1.6 11.3 0.00 0.00 0.00
20260505211515 10 4 4.8 11.3 0.00 0.00 0.00
20260505210515 10 18 4.8 12.9 0.00 0.00 0.00
20260505205515 10 12 4.8 11.3 0.00 0.00 0.00
20260505204515 10 358 4.8 9.7 0.00 0.00 0.00
20260505203535 11 12 3.2 11.3 0.00 0.00 0.00
20260505202535 11 7 3.2 9.7 0.00 0.00 0.00
20260505201535 11 3 4.8 11.3 0.00 0.00 0.00
20260505200515 11 8 6.4 14.5 0.00 0.00 0.00
20260505195615 11 4 3.2 9.7 0.00 0.00 0.00
20260505194515 11 12 3.2 11.3 0.00 0.00 0.00
20260505193515 11 13 6.4 17.7 0.00 0.00 0.00
20260505192535 11 11 4.8 11.3 0.00 0.00 0.00
20260505191515 12 11 4.8 11.3 0.00 0.00 0.00
20260505190515 12 35 1.6 8.0 0.00 0.00 0.00
20260505185635 12 22 3.2 11.3 0.00 0.00 0.00
20260505184535 12 18 4.8 11.3 0.00 0.00 0.00
20260505183515 13 12 3.2 11.3 0.00 0.00 0.00
20260505182515 13 17 3.2 12.9 0.00 0.00 0.00
20260505181515 13 17 3.2 9.7 0.00 0.00 0.00
20260505180535 15 27 3.2 8.0 0.00 0.00 0.00
20260505175535 15 27 3.2 12.9 0.00 0.00 0.00
20260505174635 14 31 4.8 11.3 0.00 0.00 0.00
20260505173555 14 20 4.8 11.3 0.00 0.00 0.00
20260505172515 14 40 3.2 11.3 0.00 0.00 0.00
20260505171555 15 41 1.6 12.9 0.00 0.00 0.00
20260505170515 15 30 4.8 11.3 0.00 0.00 0.00
20260505165515 15 50 1.6 8.0 0.00 0.00 0.00
20260505164555 15 23 3.2 9.7 0.00 0.00 0.00
20260505163555 16 41 3.2 12.9 0.00 0.00 0.00
20260505162535 16 46 3.2 11.3 0.00 0.00 0.00
20260505161555 16 31 4.8 12.9 0.00 0.00 0.00
20260505160535 17 47 1.6 6.4 0.00 0.00 0.00
20260505152515 17 82 1.6 9.7 0.00 0.00 0.00
20260505151515 17 72 1.6 11.3 0.00 0.00 0.00
20260505150515 18 57 3.2 11.3 0.00 0.00 0.00